Simultaneous Nadir Overpasses (SNOs) Predictions

Prediction of SNOs between GOES-15 and NOAA-20 Satellite Orbit:

Table of predicted SNOs for the next 14.0 days since TLE Epoch: 11/7/2020
Index Date Time (GOES-15) GOES-15 Lat,Lon NOAA-20 Lat,Lon Distance(km) Time Diff (sec)
1 11/07/2020 09:39:58 -0.12,-127.87 -0.91,-124.33 403.92 80
2 11/08/2020 22:04:34 0.10,-127.83 -0.32,-129.62 205.18 80
3 11/09/2020 21:43:11 0.12,-127.79 0.74,-125.10 306.53 80
4 11/11/2020 10:07:38 -0.09,-127.72 0.52,-130.36 301.62 80
5 11/12/2020 09:46:15 -0.11,-127.68 -0.54,-125.84 210.08 80
6 11/13/2020 22:10:51 0.08,-127.63 -0.69,-131.14 399.35 80
7 11/14/2020 21:49:26 0.09,-127.58 0.31,-126.60 111.83 80
8 11/16/2020 10:13:54 -0.06,-127.50 0.94,-131.86 497.49 80
9 11/17/2020 09:52:30 -0.08,-127.45 -0.11,-127.34 13.43 80
10 11/19/2020 21:58:22 0.06,-127.35 -0.10,-128.10 86.36 80
11 11/20/2020 21:36:58 0.08,-127.30 0.90,-123.57 424.07 80
